SCP
0 0 0 0 0 0 0 0 0 0 0 0 0 0 0 0 0 0 0 0 0 0 0 0 0 1 1 2 3 3 3 2 2 2 2 2 2 2 1 1 1 0 0
0 0 0 0 0 0 0 0 0 0 0 0 0 0 0 0 0 0 0 0 0 0 0 0 0 1 1 2 3 3 3 3 2 2 2 2 2 2 1 1 1 0 0
0 0 0 0 0 0 0 0 0 0 0 0 0 0 0 0 0 0 0 0 0 0 0 0 0 0 1 1 2 3 3 3 2 2 2 2 2 2 2 1 1 0 0
0 0 0 0 0 0 0 0 0 0 0 0 0 0 0 0 0 0 0 0 0 0 0 0 0 0 0 1 2 2 3 3 2 2 2 2 2 2 2 1 1 0 0
0 0 0 0 0 0 0 0 0 0 0 0 0 0 0 0 0 0 0 0 0 0 0 0 0 0 0 1 1 2 2 3 3 2 2 3 3 2 2 1 1 0 0
0 0 0 0 0 0 0 0 0 0 0 0 0 0 0 0 0 0 0 0 0 0 0 0 0 0 0 0 1 1 2 3 3 3 2 3 3 3 2 1 1 1 0
0 0 0 0 0 0 0 0 0 0 0 0 0 0 0 0 0 0 0 0 0 0 0 0 0 0 0 0 1 1 1 2 3 3 2 3 3 3 2 2 1 1 0
0 0 0 0 0 0 0 0 0 0 0 0 0 0 0 0 0 0 0 0 -0 -0 -0 0 0 0 0 1 1 1 1 2 3 3 3 2 3 3 3 2 1 1 0
0 0 0 0 0 0 0 0 0 0 0 0 0 0 0 0 0 0 0 0 0 0 0 0 0 0 0 1 1 1 1 1 2 2 3 2 2 3 3 3 2 1 1
0 0 0 0 0 0 0 0 0 0 0 0 0 0 0 0 0 0 0 0 0 0 0 0 0 0 0 0 0 0 0 0 1 1 2 2 2 3 3 3 2 1 1
0 0 0 0 0 0 0 0 0 0 0 0 0 0 0 0 0 0 0 0 0 0 0 0 0 0 0 0 0 0 0 0 0 0 1 1 1 2 2 3 3 2 1
0 0 0 0 0 0 0 0 0 0 0 0 0 0 0 0 0 0 0 0 0 0 0 0 0 0 0 0 0 0 0 0 0 0 0 0 0 1 1 2 3 2 1
0 0 0 0 0 0 0 0 0 0 0 0 0 0 0 0 0 0 0 0 0 0 0 0 1 0 0 0 0 0 0 0 0 0 0 0 0 0 1 1 2 2 1
0 0 0 0 0 0 0 0 0 0 0 0 0 0 0 0 0 0 0 0 0 0 0 0 1 1 0 0 0 0 0 0 0 0 0 0 0 0 0 1 2 2 1
0 0 0 0 0 0 0 0 0 0 0 0 0 0 0 0 0 0 0 0 0 0 0 0 0 0 1 0 0 0 0 0 0 0 0 0 0 0 0 1 1 1 1
0 0 0 0 0 0 0 0 0 0 0 0 0 0 0 0 0 0 0 0 0 0 0 0 0 0 0 0 0 0 0 0 0 0 0 0 0 0 0 1 1 1 1
0 0 0 0 0 0 0 0 0 0 0 0 0 0 0 0 0 0 0 0 0 0 0 0 0 0 0 0 0 0 0 0 0 0 0 0 0 0 0 0 0 0 0
0 0 0 0 0 0 0 0 0 0 0 0 0 0 0 0 0 0 0 0 0 0 0 0 0 0 0 0 0 0 0 0 0 0 0 0 0 0 0 0 0 0 0
0 0 0 0 0 0 0 0 0 0 0 0 0 0 0 0 0 0 0 0 0 0 0 0 0 0 0 0 0 0 0 0 0 0 0 0 0 0 0 0 0 0 0
0 0 0 0 0 0 0 0 0 0 0 0 0 0 0 0 0 0 0 0 0 0 0 0 0 0 0 0 0 0 0 0 0 0 0 0 0 0 0 0 0 0 0
0 0 0 0 0 0 0 0 0 0 0 0 0 0 0 0 0 0 0 0 0 0 0 0 0 0 0 0 0 0 0 0 0 0 0 0 0 0 0 0 0 0 0
0 0 0 0 0 0 0 0 0 0 0 0 0 0 0 0 0 0 0 0 0 0 0 0 0 0 0 0 0 0 0 0 0 0 0 0 0 0 0 0 0 0 0
0 0 0 0 0 0 0 0 0 0 0 0 0 0 0 0 0 0 0 0 0 0 0 0 0 0 0 0 0 0 0 0 0 0 0 0 0 0 0 0 0 0 0
0 0 0 0 0 0 0 0 0 0 0 0 0 0 0 0 0 0 0 0 0 0 0 0 0 0 0 0 0 0 0 0 0 0 0 0 0 0 0 0 0 0 0
0 0 0 0 0 0 0 0 0 0 0 0 0 0 0 0 0 0 0 0 0 0 0 0 0 0 0 0 0 0 0 0 0 0 0 0 0 0 0 0 0 0 0
0 0 0 0 0 0 0 0 0 0 0 0 0 0 0 0 0 0 0 0 0 0 0 0 0 0 0 0 0 0 -0 0 0 0 0 0 0 0 0 0 0 0 0
Wind_Speed
5 6 6 6 6 7 7 7 7 8 8 9 10 11 13 13 13 11 10 13 16 21 23 25 26 27 26 23 21 21 22 22 23 23 26 27 27 27 27 27 26 25 24
6 6 6 6 7 8 8 8 9 8 8 9 11 12 13 14 14 14 12 12 15 19 23 25 28 29 29 26 22 21 22 23 25 26 27 28 28 28 28 28 27 26 25
6 6 6 7 8 8 9 8 9 8 9 10 12 13 13 14 14 15 14 12 13 15 19 25 27 29 30 28 25 22 22 23 25 28 30 32 31 30 30 29 28 27 26
6 6 6 6 7 8 7 7 8 8 9 10 10 11 12 13 16 15 15 14 12 12 13 19 24 26 29 29 29 25 23 24 26 28 32 33 33 32 31 30 30 29 28
6 6 6 6 7 6 6 6 7 8 9 11 12 12 13 14 15 15 16 16 15 14 13 15 18 21 25 29 30 29 26 25 27 28 32 34 33 33 33 33 32 31 30
5 6 6 6 6 6 6 6 7 8 9 10 12 14 14 14 14 14 15 15 14 14 14 14 12 13 21 26 29 30 30 27 26 29 32 36 35 35 36 36 34 32 32
5 6 6 6 6 6 7 7 7 8 8 8 10 13 14 14 14 12 10 11 12 12 12 14 12 11 11 19 25 30 32 30 28 28 32 36 38 38 39 39 37 36 34
6 6 7 7 7 6 7 6 7 7 7 5 8 12 12 12 8 8 11 11 12 12 13 14 16 15 12 10 13 24 29 30 29 27 29 34 38 40 41 40 41 39 37
6 7 7 8 7 6 6 7 7 8 7 7 6 6 9 11 15 11 11 11 12 12 13 14 17 16 15 13 14 16 22 25 28 28 28 32 38 40 41 42 41 40 39
7 8 8 8 7 6 7 7 7 8 9 9 7 9 12 12 11 18 13 14 15 14 14 13 15 16 17 15 16 16 17 19 23 26 28 31 36 40 42 41 43 43 42
8 7 8 9 8 8 8 9 10 10 9 11 10 10 11 11 14 15 20 16 14 13 14 15 16 16 18 17 15 17 19 18 20 23 27 31 33 35 44 49 47 45 43
6 8 9 9 9 9 9 9 10 12 11 12 12 12 12 11 10 12 16 20 18 14 15 15 16 16 16 17 20 21 23 21 21 24 26 28 30 27 33 41 48 45 43
7 8 8 9 9 10 10 10 11 12 13 14 15 13 12 13 12 12 14 16 21 16 15 15 16 17 17 15 15 18 19 19 21 25 26 27 27 26 29 26 35 41 41
8 9 9 10 11 11 12 12 11 13 13 14 17 16 13 12 12 12 13 14 19 20 18 20 17 17 18 16 17 22 18 20 22 22 25 28 29 29 31 32 34 36 39
7 9 10 10 11 12 13 13 11 15 15 15 16 17 15 12 13 13 12 13 16 19 21 19 18 18 17 16 16 15 16 20 21 20 22 26 29 31 34 40 37 34 36
8 9 9 10 11 12 13 13 12 14 16 16 14 17 17 14 14 13 13 13 16 18 21 17 16 20 20 17 16 14 16 14 13 20 20 26 30 33 35 35 34 37 37
8 9 9 10 11 12 13 14 14 15 17 18 18 19 21 20 16 13 13 15 15 14 19 19 17 19 23 23 17 13 12 12 10 17 18 26 30 31 35 34 34 39 40
8 8 9 11 12 13 13 14 14 15 18 20 20 21 21 19 20 17 15 16 16 16 18 19 18 19 23 23 19 15 13 10 11 12 17 26 34 32 35 34 33 35 36
8 8 9 11 12 13 12 13 14 16 18 19 20 21 20 21 20 17 18 16 15 14 16 18 20 19 18 21 18 17 13 11 10 11 15 16 28 34 36 36 33 33 32
7 9 10 11 12 12 12 13 14 17 19 20 21 21 21 21 21 20 18 18 16 17 17 18 18 18 19 21 13 9 8 9 9 10 11 12 22 33 37 38 35 33 33
7 9 11 12 12 11 11 15 17 18 21 21 21 21 21 23 28 28 22 18 17 16 16 17 16 17 16 16 10 6 6 8 11 10 7 11 17 23 29 32 30 32 34
7 8 10 11 12 10 16 23 22 19 21 21 20 20 21 22 25 33 36 34 30 25 21 19 17 18 16 15 9 7 7 7 10 5 3 14 20 22 23 24 33 36 36
7 8 9 9 12 13 19 24 26 20 20 19 20 19 17 18 22 22 28 33 32 35 35 28 23 24 19 16 11 6 4 5 7 7 6 11 14 19 22 24 39 38 37
6 8 9 10 12 14 20 24 27 20 19 20 19 20 20 21 22 24 22 22 23 25 27 24 23 23 22 18 16 8 3 6 11 8 5 7 13 16 19 24 40 42 37
6 7 9 11 13 15 21 25 24 16 18 19 19 19 21 22 27 33 26 23 23 20 25 34 34 34 36 32 21 8 5 7 11 9 2 6 15 18 18 19 26 38 38
6 8 10 11 14 15 20 24 25 15 18 18 18 18 23 26 32 34 27 23 21 20 18 18 22 27 28 27 30 18 8 8 10 10 6 11 16 19 19 18 20 21 23
Wind_Direction
12 2 357 352 349 345 337 327 323 321 315 309 301 296 296 295 291 285 280 279 279 281 277 265 259 260 262 259 252 244 235 227 222 207 203 198 191 186 184 183 185 185 182
5 353 350 346 345 345 335 324 321 318 311 309 304 300 295 290 287 284 280 275 267 266 269 271 265 259 258 258 255 248 240 229 221 210 204 203 195 187 185 186 187 186 184
356 348 344 341 344 338 326 322 321 319 314 309 306 304 299 293 288 284 281 276 273 263 257 261 263 263 259 255 255 250 244 238 228 214 205 202 197 189 187 189 189 186 183
352 345 337 330 332 323 320 322 323 322 315 309 304 301 298 294 290 285 278 273 272 272 267 263 261 259 257 255 253 251 245 239 234 221 207 203 196 189 188 190 190 186 182
339 328 315 313 316 308 305 307 307 309 306 305 303 299 293 287 282 279 277 275 273 272 272 271 266 264 260 254 251 250 247 240 236 227 210 204 197 190 188 189 190 186 182
302 302 299 298 293 285 285 294 297 300 298 303 302 295 290 282 275 272 272 274 273 272 276 280 277 263 252 248 247 247 247 244 237 232 219 206 197 192 189 187 189 186 183
293 293 286 281 275 275 288 299 302 299 301 310 306 309 297 279 264 258 268 273 274 273 276 283 281 279 268 247 238 240 243 243 240 235 228 218 204 197 192 187 187 187 185
280 289 292 289 283 286 293 303 307 300 299 311 321 315 310 303 250 296 278 274 284 290 289 289 289 285 282 275 250 237 236 239 241 239 233 228 217 202 193 189 187 187 186
283 280 275 279 289 296 296 295 292 288 287 292 293 295 305 307 322 289 303 299 297 296 291 286 283 282 281 271 268 252 237 233 236 237 237 231 225 208 191 192 189 187 186
287 282 288 290 293 289 279 279 279 279 281 282 279 253 259 283 295 305 298 303 301 291 283 282 285 285 282 279 275 274 250 228 229 232 236 234 227 217 204 191 193 187 185
290 295 291 287 283 274 272 274 277 275 272 276 276 276 278 272 267 277 290 292 287 283 285 276 268 267 268 273 275 269 271 250 231 227 229 233 230 225 219 194 194 188 184
294 286 276 277 279 280 280 280 279 275 273 271 271 272 271 268 270 270 277 288 288 283 283 280 275 268 265 264 264 264 264 264 254 229 223 227 229 224 230 205 189 184 181
276 274 287 292 293 294 294 287 276 270 268 268 269 270 269 270 274 273 272 278 284 286 279 274 271 270 268 261 264 270 266 260 258 242 220 223 221 224 216 202 200 180 179
276 288 292 290 294 296 291 283 276 272 270 269 269 269 270 268 266 264 263 270 279 283 279 272 269 261 263 262 265 262 260 256 255 253 233 221 216 214 195 194 202 180 178
275 286 291 297 299 294 288 284 278 278 277 273 272 270 269 268 263 262 263 262 267 274 275 276 276 274 259 257 263 261 260 251 240 242 250 223 209 205 192 186 187 178 181
280 285 292 298 297 292 286 281 273 271 272 271 271 272 269 267 263 258 257 261 258 260 272 275 274 275 276 266 264 265 261 259 246 245 260 226 204 194 189 182 178 173 176
282 291 299 298 292 290 289 287 286 284 279 276 272 272 270 268 266 262 260 259 259 264 273 274 276 281 279 280 262 253 257 257 259 249 250 219 190 185 184 186 186 176 168
286 294 299 295 292 293 294 292 289 286 284 282 280 278 275 274 270 266 264 262 262 262 269 277 277 274 271 272 267 263 256 246 245 246 246 229 187 180 172 169 167 159 155
287 296 297 295 294 294 295 293 292 289 286 283 280 277 274 272 269 266 263 262 264 267 270 274 269 271 278 271 259 256 251 258 254 256 241 233 191 179 175 175 171 160 153
295 299 295 290 290 294 299 297 294 291 287 281 277 272 268 265 264 264 262 259 258 257 259 266 265 266 272 272 261 253 263 264 258 256 246 235 207 181 180 177 172 166 158
285 285 290 291 295 301 299 299 296 291 287 284 279 274 268 265 264 262 260 257 255 257 258 261 259 256 261 268 254 242 276 298 297 273 250 257 212 185 182 176 169 164 161
281 288 290 297 302 302 303 302 299 298 294 290 285 279 275 270 265 265 263 260 255 254 255 260 266 269 268 272 267 268 283 294 295 274 266 259 206 186 181 175 172 167 165
293 294 297 305 305 304 303 305 307 300 294 292 290 286 279 271 269 266 266 264 263 262 259 259 258 260 266 273 278 259 277 294 278 297 309 274 208 179 174 170 167 164 161
293 302 308 305 300 302 306 308 306 303 295 290 288 286 281 279 273 272 270 263 255 252 255 258 259 261 261 262 273 265 238 277 282 270 227 246 237 178 174 168 164 157 154
306 306 301 302 299 298 302 306 308 299 291 293 291 285 279 275 275 277 274 270 264 252 249 254 255 255 259 251 247 234 225 259 281 299 205 218 252 173 157 152 154 154 154
307 308 305 301 293 288 293 304 306 300 296 295 290 284 281 280 278 277 275 274 271 268 253 251 255 255 257 249 245 244 227 250 276 289 267 248 225 162 147 151 148 149 151